This demonstration page uses our WeatherBlox Daily Observations layout. Learn more.

Left ArrowRight Arrow

36.19886, -115.1175

Hourly Observations for January 28, 2022

Temp ( °F °C ) Dew Point ( °F °C ) Humidity (%) Winds ( mph kmh ) Pressure ( in mb ) Visibility ( mi km ) Precip ( " mm )
12:53 am 00:53 Clear 45 7.2 2 -16.7 16 16 W 7 11 30.55 1035 10 16 0.00 0.00
1:53 am 01:53 Clear 45 7.2 1 -17.2 16 16 NW 8 13 30.55 1035 10 16 0.00 0.00
2:53 am 02:53 Clear 41 5 2 -16.7 19 19 N 5 7 30.57 1035 10 16 0.00 0.00
3:53 am 03:53 Clear 40 4.4 2 -16.7 20 20 Calm 30.57 1035 10 16 0.00 0.00
4:53 am 04:53 Clear 37 2.8 5 -15 26 26 NNW 3 6 30.58 1036 10 16 0.00 0.00
5:53 am 05:53 Clear 38 3.3 5 -15 25 25 WNW 5 7 30.60 1036 10 16 0.00 0.00
6:53 am 06:53 Sunny 37 2.8 2 -16.7 22 22 NE 5 7 30.61 1037 10 16 0.00 0.00
7:53 am 07:53 Sunny 39 3.9 7 -13.9 26 26 WNW 5 7 30.63 1037 10 16 0.00 0.00
8:53 am 08:53 Sunny 46 7.8 5 -15 18 18 SSW 5 7 30.62 1037 10 16 0.00 0.00
9:53 am 09:53 Sunny 50 10 6 -14.4 17 17 S 9 15 30.61 1037 10 16 0.00 0.00
10:53 am 10:53 Sunny 52 11.1 5 -15 15 15 VRB 3 6 30.59 1036 10 16 0.00 0.00
11:53 am 11:53 Sunny 56 13.3 3 -16.1 11 11 Calm 30.54 1034 10 16 0.00 0.00
12:53 pm 12:53 Sunny 58 14.4 1 -17.2 10 10 VRB 3 6 30.50 1033 10 16 0.00 0.00
1:53 pm 13:53 Sunny 61 16.1 0 -17.8 8 8 VRB 3 6 30.45 1031 10 16 0.00 0.00
2:53 pm 14:53 Sunny 61 16.1 -2 -18.9 7 7 E 15 24 30.43 1031 10 16 0.00 0.00
3:53 pm 15:53 Sunny 60 15.6 -1 -18.3 8 8 E 13 20 30.42 1030 10 16 0.00 0.00
4:53 pm 16:53 Sunny 59 15 0 -17.8 9 9 Calm 30.41 1030 10 16 0.00 0.00
5:53 pm 17:53 Clear 54 12.2 3 -16.1 12 12 W 6 9 30.41 1030 10 16 0.00 0.00
6:53 pm 18:53 Clear 50 10 3 -16.1 14 14 NW 6 9 30.42 1030 10 16 0.00 0.00
7:53 pm 19:53 Clear 48 8.9 4 -15.6 16 16 WNW 8 13 30.41 1030 10 16 0.00 0.00
8:53 pm 20:53 Clear 46 7.8 2 -16.7 16 16 NW 7 11 30.40 1030 10 16 0.00 0.00
9:53 pm 21:53 Clear 48 8.9 1 -17.2 14 14 WNW 8 13 30.38 1029 10 16 0.00 0.00
10:53 pm 22:53 Clear 47 8.3 2 -16.7 15 15 Calm 30.38 1029 10 16 0.00 0.00
11:53 pm 23:53 Clear 43 6.1 5 -15 21 21 WSW 5 7 30.37 1029 10 16 0.00 0.00

Powered by AerisWeather